Gastonia, NC

4:13 PM EST on November 24, 2017 (GMT -0500)
Gastonia Municipal

Weather History for KAKH - October, 2011

Change the Weather History Date:

Saturday, October 22, 2011

  Actual Average (KCLT) Record (KCLT)
Temperature  
Mean Temperature 52 °F -  
Max Temperature 64 °F 69 °F 85 °F (1939)
Min Temperature 41 °F 47 °F 29 °F (1952)
Degree Days  
Heating Degree Days 12    
Growing Degree Days 2 (Base 50)    
Moisture  
Dew Point 41 °F    
Average Humidity 72    
Maximum Humidity 97    
Minimum Humidity 38    
Precipitation  
Precipitation 0.00 in - - ()
Sea Level Pressure  
Sea Level Pressure 30.12 in    
Wind  
Wind Speed 4 mph (North)    
Max Wind Speed 10 mph    
Max Gust Speed -    
Visibility 10 miles    
Events      
Averages and records for this station are not official NWS values.
T = Trace of Precipitation, MM = Missing Value Source: NWS Daily Summary

Daily Weather History Graph

Daily Weather History Graph

Search for Another Location

Airport or City:

Trip Planner

Search our weather history database for the weather conditions in past years. The results will help you decide how hot, cold, wet, or windy it might be!

Date:

Astronomy

Oct. 22, 2011 Rise Set
Actual Time 7:36 AM EDT 6:41 PM EDT
Civil Twilight 7:10 AM EDT 7:06 PM EDT
Nautical Twilight 6:41 AM EDT 7:36 PM EDT
Astronomical Twilight 6:11 AM EDT 8:05 PM EDT
Moon 2:43 AM EDT (10/22) 3:49 PM EDT (10/22)
Length of Visible Light 11h 56m
Length of Day
11h 04m
Waning Crescent, 24% of the Moon is Illuminated
Oct 22
Waning Crescent
Oct 26
New
Nov 2
First Quarter
Nov 10
Full
Nov 18
Last Quarter

Hourly Weather History & Observations

Time (EDT) Temp. Windchill Dew Point Humidity Pressure Visibility Wind Dir Wind Speed Gust Speed Precip Events Conditions
12:54 AM 46.9 °F - 39.9 °F 77% 30.10 in 10.0 mi North 4.6 mph - N/A   Clear
1:54 AM 45.0 °F 42.6 °F 41.0 °F 86% 30.10 in 10.0 mi NNW 4.6 mph - N/A   Clear
3:54 AM 43.0 °F 40.3 °F 39.0 °F 86% 30.10 in 10.0 mi North 4.6 mph - N/A   Clear
4:54 AM 44.1 °F 40.8 °F 37.9 °F 79% 30.11 in 10.0 mi North 5.8 mph - N/A   Clear
5:54 AM 43.0 °F 40.3 °F 37.9 °F 82% 30.12 in 10.0 mi North 4.6 mph - N/A   Clear
6:54 AM 41.0 °F 38.0 °F 37.0 °F 86% 30.14 in 10.0 mi NNE 4.6 mph - N/A   Clear
7:54 AM 41.0 °F - 37.9 °F 89% 30.17 in 10.0 mi Calm Calm - N/A   Clear
8:54 AM 46.0 °F 43.9 °F 39.9 °F 79% 30.18 in 10.0 mi North 4.6 mph - N/A   Clear
9:54 AM 52.0 °F - 42.1 °F 69% 30.18 in 10.0 mi NE 9.2 mph - N/A   Clear
10:54 AM 57.0 °F - 41.0 °F 55% 30.17 in 10.0 mi NE 10.4 mph - N/A   Clear
11:54 AM 59.0 °F - 41.0 °F 51% 30.17 in 10.0 mi Variable 5.8 mph - N/A   Clear
12:54 PM 62.1 °F - 41.0 °F 46% 30.14 in 10.0 mi Variable 5.8 mph - N/A   Clear
2:54 PM 64.0 °F - 39.0 °F 40% 30.09 in 10.0 mi WNW 5.8 mph - N/A   Clear
3:54 PM 64.0 °F - 39.0 °F 40% 30.08 in 10.0 mi WNW 4.6 mph - N/A   Clear
4:54 PM 64.0 °F - 37.9 °F 38% 30.08 in 10.0 mi Calm Calm - N/A   Clear
5:54 PM 61.0 °F - 42.1 °F 50% 30.09 in 10.0 mi Calm Calm - N/A   Clear
6:54 PM 54.0 °F - 45.0 °F 72% 30.10 in 10.0 mi Calm Calm - N/A   Clear
7:54 PM 50.0 °F - 45.0 °F 83% 30.11 in 10.0 mi Calm Calm - N/A   Clear
8:54 PM 48.0 °F - 44.1 °F 86% 30.11 in 10.0 mi Calm Calm - N/A   Clear
9:54 PM 45.0 °F - 43.0 °F 93% 30.11 in 6.0 mi Calm Calm - N/A   Clear
10:54 PM 45.0 °F - 42.1 °F 90% 30.11 in 10.0 mi Calm Calm - N/A   Clear
11:54 PM 43.0 °F - 42.1 °F 97% 30.12 in 4.0 mi Calm Calm - N/A   Clear